Tracking 28794 objects as of 19-Apr-2024
HD Live streaming from Space Station
objects crossing your sky now

DELTA 1 DEB

Track DELTA 1 DEB now!
10-day predictions


NORAD ID: 13539
Int'l Code: 1976-077EM
Perigee: 1,508.2 km
Apogee: 2,186.0 km
Inclination: 101.8 °
Period: 123.6 minutes
Semi major axis: 8218 km
RCS: 0.0923 m2 (small)
Launch date: July 29, 1976
Source: United States (US)
Launch site: AIR FORCE WESTERN TEST RANGE (AFWTR)

Note: This is SATELLITE DEBRIS
Your satellite tracking list
Your tracking list is empty




NASA's NSSDC Master Catalog

Two Line Element Set (TLE):
1 13539U 76077EM  24110.02983146  .00000097  00000-0  20298-2 0  9998
2 13539 101.8334 292.4112 0412409 263.4970 225.6106 11.65317773861823
Source of the keplerian elements: AFSPC